Weather History for Samos, Greece

Change the Weather History Date:

Saturday, December 15, 2012

  Actual Average Record
Temperature  
Mean Temperature 46 °F -  
Max Temperature 54 °F 58 °F 64 °F (1996)
Min Temperature 40 °F 46 °F 35 °F (2013)
Degree Days  
Heating Degree Days 18    
Moisture  
Dew Point 33 °F    
Average Humidity 55    
Maximum Humidity 71    
Minimum Humidity 38    
Precipitation  
Precipitation 0.00 in 0.20 in - ()
Sea Level Pressure  
Sea Level Pressure 30.26 in    
Wind  
Wind Speed 13 mph ()    
Max Wind Speed 16 mph    
Max Gust Speed -    
Visibility 6.1 miles    
Events      
Averages and records for this station are not official NWS values.
T = Trace of Precipitation, MM = Missing Value Source: Averaged Metar Reports

Daily Weather History Graph

Daily Weather History Graph

Search for Another Location

Airport:

Trip Planner

Search our weather history database for the weather conditions in past years. The results will help you decide how hot, cold, wet, or windy it might be!

Date:

Astronomy

Dec. 15, 2012 Rise Set
Actual Time 7:20 AM EET 4:54 PM EET
Civil Twilight 6:51 AM EET 5:24 PM EET
Nautical Twilight 6:18 AM EET 5:57 PM EET
Astronomical Twilight 5:46 AM EET 6:29 PM EET
Moon 9:00 AM EET (12/15) 7:33 PM EET (12/15)
Length of Visible Light 10h 33m
Length of Day
9h 34m
Waxing Crescent, 6% of the Moon is Illuminated
Dec 15
Waxing Crescent
Dec 20
First Quarter
Dec 28
Full
Jan 5
Last Quarter
Jan 11
New

Hourly Weather History & Observations

Time (EET) Temp. Windchill Dew Point Humidity Pressure Visibility Wind Dir Wind Speed Gust Speed Precip Events Conditions
4:50 AM 41.0 °F 32.8 °F 28.4 °F 61% 30.24 in 6.2 mi North 16.1 mph - N/A   Partly Cloudy
5:20 AM 41.0 °F 32.8 °F 28.4 °F 61% 30.24 in 6.2 mi North 16.1 mph - N/A   Partly Cloudy
5:50 AM 41.0 °F 32.8 °F 26.6 °F 57% 30.24 in 6.2 mi North 16.1 mph - N/A   Partly Cloudy
6:20 AM 41.0 °F 32.8 °F 28.4 °F 61% 30.24 in 6.2 mi North 16.1 mph - N/A   Partly Cloudy
6:50 AM 41.0 °F 32.8 °F 28.4 °F 61% 30.24 in 6.2 mi North 16.1 mph - N/A   Partly Cloudy
7:20 AM 41.0 °F 32.8 °F 26.6 °F 57% 30.24 in - North 16.1 mph - N/A   Clear
7:50 AM 42.8 °F 35.1 °F 28.4 °F 57% 30.27 in - North 16.1 mph - N/A   Clear
8:00 AM 44 °F - 29 °F 43% 30.29 in 6 mi North 16.1 mph - -   Scattered Clouds
8:20 AM 42.8 °F 35.1 °F 28.4 °F 57% 30.27 in - North 16.1 mph - N/A   Clear
8:50 AM 46.4 °F 39.8 °F 32.0 °F 57% 30.27 in - North 16.1 mph - N/A   Clear
9:20 AM 48.2 °F - 33.8 °F 58% 30.27 in - North 16.1 mph - N/A   Clear
9:50 AM 50.0 °F - 30.2 °F 47% 30.27 in - North 16.1 mph - N/A   Clear
10:20 AM 50.0 °F - 30.2 °F 47% 30.27 in - North 16.1 mph - N/A   Clear
10:50 AM 51.8 °F - 30.2 °F 44% 30.30 in - North 16.1 mph - N/A   Clear
11:20 AM 51.8 °F - 30.2 °F 44% 30.30 in - North 16.1 mph - N/A   Clear
11:50 AM 53.6 °F - 30.2 °F 41% 30.30 in - North 16.1 mph - N/A   Clear
12:20 PM 53.6 °F - 35.6 °F 51% 30.30 in - North 16.1 mph - N/A   Clear
12:50 PM 53.6 °F - 41.0 °F 62% 30.27 in - North 13.8 mph - N/A   Clear
1:20 PM 51.8 °F - 35.6 °F 54% 30.27 in - North 13.8 mph - N/A   Clear
1:50 PM 51.8 °F - 35.6 °F 54% 30.24 in - North 13.8 mph - N/A   Clear
2:00 PM 53 °F - 35 °F 38% 30.26 in 6 mi North 13.8 mph - -  
2:20 PM 53.6 °F - 35.6 °F 51% 30.24 in - North 12.7 mph - N/A   Clear
2:50 PM 53.6 °F - 33.8 °F 47% 30.24 in - North 13.8 mph - N/A   Clear
3:20 PM 53.6 °F - 33.8 °F 47% 30.24 in - North 15.0 mph - N/A   Clear
3:50 PM 51.8 °F - 35.6 °F 54% 30.24 in - North 12.7 mph - N/A   Clear
4:20 PM 51.8 °F - 35.6 °F 54% 30.24 in - North 12.7 mph - N/A   Clear
4:50 PM 50.0 °F - 35.6 °F 58% 30.24 in - North 11.5 mph - N/A   Clear
5:20 PM 50.0 °F - 35.6 °F 58% 30.24 in - North 10.4 mph - N/A   Clear
5:50 PM 48.2 °F - 37.4 °F 66% 30.24 in - North 10.4 mph - N/A   Clear
6:20 PM 48.2 °F - 39.2 °F 71% 30.24 in - North 10.4 mph - N/A   Clear
6:50 PM 48.2 °F - 39.2 °F 71% 30.24 in - NNE 8.1 mph - N/A   Clear
7:20 PM 48.2 °F - 39.2 °F 71% 30.24 in - Variable 5.8 mph - N/A   Clear
7:50 PM 48.2 °F - 35.6 °F 62% 30.24 in - Variable 3.5 mph - N/A   Clear
8:00 PM 49 °F - 35 °F 47% 30.24 in 6 mi 3.5 mph - -